Volver al catálogo

CSTP-2.1

ActivoCienciaSSO
NORAD 61777·PAYLOAD·🇮🇷 Iran

Lanzado Nov 4, 2024 desde Vostochny Cosmodrome

Loading…

Próximos Pases (próximas 24 horas)

TLE

ActualizadoSource: Space-Track

Época: Sep 14, 2026, 15:12 UTC

1 61777U 24199AU  26257.63373503  .00016186  00000-0  30465-3 0  9998
2 61777  97.2817 130.8126 0011882 316.5297  43.5016 15.48543232148018

Sigue CSTP-2.1 en tiempo real con AllMySat

Download on the App Store